Weather History for KPEQ - April, 2013

Change the Weather History Date:

Wednesday, April 10, 2013

  Actual Average Record
Temperature  
Mean Temperature 49 °F -  
Max Temperature 61 °F 80 °F 100 °F (1948)
Min Temperature 37 °F 44 °F 29 °F (1973)
Degree Days  
Heating Degree Days 16    
Moisture  
Dew Point 22 °F    
Average Humidity 37    
Maximum Humidity 64    
Minimum Humidity 24    
Precipitation  
Precipitation 0.00 in - - ()
Sea Level Pressure  
Sea Level Pressure 29.97 in    
Wind  
Wind Speed 9 mph (NNE)    
Max Wind Speed 20 mph    
Max Gust Speed 23 mph    
Visibility 10 miles    
Events Rain    
Averages and records for this station are not official NWS values.
T = Trace of Precipitation, MM = Missing Value Source: NWS Daily Summary

Daily Weather History Graph

Daily Weather History Graph

Search for Another Location

Airport or City:

Trip Planner

Search our weather history database for the weather conditions in past years. The results will help you decide how hot, cold, wet, or windy it might be!

Date:

Astronomy

Apr. 10, 2013 Rise Set
Actual Time 7:31 AM CDT 8:19 PM CDT
Civil Twilight 7:06 AM CDT 8:44 PM CDT
Nautical Twilight 6:37 AM CDT 9:13 PM CDT
Astronomical Twilight 6:07 AM CDT 9:43 PM CDT
Moon 7:30 AM CDT (4/10) 8:53 PM CDT (4/10)
Length of Visible Light 13h 37m
Length of Day
12h 48m
New Moon, 0% of the Moon is Illuminated
Apr 10
New Moon
Apr 18
First Quarter
Apr 25
Full
May 2
Last Quarter
May 9
New

Hourly Weather History & Observations

Time (CDT) Temp. Windchill Dew Point Humidity Pressure Visibility Wind Dir Wind Speed Gust Speed Precip Events Conditions
12:15 AM 57.7 °F - 25.2 °F 29% 29.83 in 10.0 mi NNW 8.1 mph - N/A   Overcast
12:35 AM 54.7 °F - 26.2 °F 33% 29.85 in 7.0 mi NE 19.6 mph 23.0 mph N/A   Overcast
12:55 AM 52.9 °F - 26.1 °F 35% 29.86 in 7.0 mi NNE 12.7 mph 18.4 mph N/A   Overcast
1:15 AM 51.1 °F - 26.2 °F 38% 29.89 in 7.0 mi NNE 12.7 mph 20.7 mph N/A   Scattered Clouds
1:35 AM 50.2 °F - 26.6 °F 40% 29.91 in 7.0 mi NNE 9.2 mph - N/A   Clear
1:55 AM 49.3 °F - 26.4 °F 41% 29.92 in 10.0 mi North 9.2 mph - N/A   Clear
2:15 AM 47.7 °F - 25.2 °F 41% 29.94 in 10.0 mi NNE 9.2 mph - N/A   Clear
2:35 AM 46.6 °F - 23.9 °F 41% 29.97 in 10.0 mi North 11.5 mph - N/A   Clear
2:55 AM 45.5 °F 39.6 °F 23.4 °F 42% 29.97 in 10.0 mi North 12.7 mph 18.4 mph N/A   Scattered Clouds
3:15 AM 44.4 °F 37.9 °F 21.7 °F 41% 29.98 in 10.0 mi North 13.8 mph 18.4 mph N/A   Scattered Clouds
3:35 AM 43.0 °F 36.8 °F 20.3 °F 40% 29.98 in 10.0 mi North 11.5 mph - N/A   Scattered Clouds
3:55 AM 42.1 °F 36.1 °F 19.4 °F 40% 29.98 in 10.0 mi North 10.4 mph - N/A   Mostly Cloudy
4:15 AM 41.5 °F 37.8 °F 18.9 °F 40% 29.97 in 10.0 mi NNE 5.8 mph - N/A   Scattered Clouds
4:35 AM 41.9 °F 36.3 °F 18.7 °F 39% 29.99 in 10.0 mi NNW 9.2 mph - N/A   Mostly Cloudy
4:55 AM 40.8 °F 36.2 °F 18.1 °F 40% 29.99 in 10.0 mi North 6.9 mph - N/A   Scattered Clouds
5:15 AM 40.6 °F 38.6 °F 18.3 °F 41% 29.98 in 10.0 mi NE 3.5 mph - N/A   Scattered Clouds
5:35 AM 40.3 °F 38.2 °F 20.8 °F 46% 29.99 in 10.0 mi NNE 3.5 mph - N/A   Light Drizzle
5:55 AM 40.1 °F 36.9 °F 22.5 °F 49% 29.99 in 10.0 mi SE 4.6 mph - N/A   Light Drizzle
6:15 AM 38.1 °F 33.7 °F 26.8 °F 64% 29.99 in 7.0 mi East 5.8 mph - N/A Rain Light Rain
6:35 AM 38.8 °F 31.6 °F 25.5 °F 59% 29.98 in 10.0 mi East 11.5 mph - N/A Rain Light Rain
6:55 AM 37.9 °F 30.9 °F 26.2 °F 63% 29.98 in 10.0 mi East 10.4 mph - N/A   Overcast
7:15 AM 38.3 °F 31.9 °F 25.2 °F 59% 30.03 in 10.0 mi NE 9.2 mph - N/A   Overcast
7:35 AM 37.6 °F 29.6 °F 24.3 °F 59% 30.04 in 10.0 mi North 12.7 mph - N/A   Light Drizzle
8:35 AM 38.5 °F 31.6 °F 22.6 °F 53% 30.05 in 10.0 mi NE 10.4 mph - N/A   Mostly Cloudy
8:55 AM 39.2 °F 32.0 °F 21.0 °F 48% 30.06 in 10.0 mi NE 11.5 mph - N/A   Overcast
9:35 AM 40.1 °F 32.7 °F 19.6 °F 44% 30.07 in 10.0 mi North 12.7 mph - N/A   Overcast
10:35 AM 41.0 °F 35.2 °F 17.6 °F 39% 30.09 in 10.0 mi North 9.2 mph - N/A   Overcast
10:55 AM 41.9 °F 36.3 °F 17.6 °F 38% 30.09 in 7.0 mi North 9.2 mph - N/A   Overcast
11:15 AM 42.8 °F 37.5 °F 17.1 °F 36% 30.09 in 7.0 mi North 9.2 mph - N/A   Overcast
11:35 AM 43.9 °F 38.8 °F 17.1 °F 34% 30.08 in 10.0 mi North 9.2 mph 16.1 mph N/A   Overcast
12:35 PM 48.0 °F - 18.7 °F 31% 30.06 in 7.0 mi NW 8.1 mph - N/A   Mostly Cloudy
1:15 PM 50.0 °F - 19.6 °F 30% 30.04 in 7.0 mi NW 10.4 mph - N/A   Clear
1:35 PM 50.9 °F - 19.0 °F 28% 30.02 in 10.0 mi East 4.6 mph - N/A   Clear
2:15 PM 53.1 °F - 21.6 °F 29% 30.00 in 10.0 mi West 3.5 mph 17.3 mph N/A   Clear
2:35 PM 53.8 °F - 21.7 °F 29% 29.99 in 10.0 mi WNW 3.5 mph - N/A   Clear
2:55 PM 55.4 °F - 22.5 °F 28% 29.98 in 10.0 mi NNW 8.1 mph - N/A   Clear
3:15 PM 56.1 °F - 21.7 °F 26% 29.97 in 10.0 mi NNW 5.8 mph - N/A   Clear
3:35 PM 57.7 °F - 22.5 °F 26% 29.96 in 10.0 mi NNW 8.1 mph - N/A   Clear
4:35 PM 59.9 °F - 23.5 °F 25% 29.93 in 10.0 mi NW 9.2 mph 17.3 mph N/A   Clear
4:55 PM 58.8 °F - 23.2 °F 25% 29.92 in 10.0 mi NW 5.8 mph - N/A   Clear
5:35 PM 59.7 °F - 24.4 °F 26% 29.91 in 10.0 mi NW 8.1 mph - N/A   Clear
5:55 PM 60.4 °F - 23.7 °F 24% 29.90 in 10.0 mi NNW 10.4 mph - N/A   Clear
6:15 PM 60.6 °F - 23.5 °F 24% 29.90 in 10.0 mi NW 8.1 mph - N/A   Clear
6:35 PM 61.3 °F - 23.9 °F 24% 29.89 in 10.0 mi North 10.4 mph - N/A   Clear
6:55 PM 60.6 °F - 24.1 °F 25% 29.89 in 10.0 mi NNE 6.9 mph - N/A   Clear
7:15 PM 60.4 °F - 24.8 °F 26% 29.89 in 10.0 mi NNE 6.9 mph - N/A   Clear
7:35 PM 59.9 °F - 24.6 °F 26% 29.89 in 10.0 mi NNE 6.9 mph - N/A   Clear
7:55 PM 59.4 °F - 24.8 °F 27% 29.90 in 10.0 mi NE 5.8 mph - N/A   Clear
8:15 PM 57.9 °F - 24.8 °F 28% 29.91 in 10.0 mi East 3.5 mph - N/A   Clear
8:35 PM 57.2 °F - 24.6 °F 29% 29.91 in 10.0 mi Calm Calm - N/A   Clear
9:35 PM 51.4 °F - 22.8 °F 33% 29.92 in 10.0 mi ESE 4.6 mph - N/A   Clear
10:15 PM 50.7 °F - 22.5 °F 33% 29.93 in 10.0 mi ESE 3.5 mph - N/A   Clear
10:35 PM 50.2 °F - 22.1 °F 33% 29.95 in 10.0 mi ESE 4.6 mph - N/A   Clear
10:55 PM 48.9 °F - 21.9 °F 35% 29.95 in 10.0 mi East 5.8 mph - N/A   Clear
11:15 PM 47.5 °F - 21.4 °F 36% 29.96 in 10.0 mi Calm Calm - N/A   Clear
11:35 PM 46.9 °F - 21.2 °F 36% 29.96 in 10.0 mi Calm Calm - N/A   Clear
11:55 PM 45.7 °F - 20.8 °F 37% 29.96 in 10.0 mi Calm Calm - N/A   Clear